Regional Weather Roundup
Issued by NWS

Home | Current Version | Previous Version | Graphics & Text | Print | Product List | Glossary On
Versions: 1 2 3 4 5 6 7 8 9 10 11 12 13 14 15 16 17 18 19 20 21 22 23 24 25 26 27 28 29 30 31 32 33 34 35 36 37 38 39 40 41 42 43 44 45 46 47 48 49 50
000
ASUS43 KDTX 212001
RWRMI
MICHIGAN HOURLY REGIONAL WEATHER ROUNDUP
NATIONAL WEATHER SERVICE DETROIT/PONTIAC MI
400 PM EDT THU AUG 21 2014

NOTE: "FAIR" INDICATES FEW OR NO CLOUDS BELOW 12,000 FEET WITH NO
SIGNIFICANT WEATHER AND/OR OBSTRUCTION TO VISIBILITY.

MIZ047>049-052>055-059>063-066>070-074>076-081>083-212100-
SOUTHEAST LOWER MICHIGAN

CITY           SKY/WX    TMP DP  RH WIND       PRES   REMARKS
ADRIAN         PTSUNNY   82  69  64 SW10      29.98S
ALMA           CLOUDY    75  66  73 CALM      29.99S
ANN ARBOR      PTSUNNY   80  67  64 SW8       29.97S
BAD AXE        CLOUDY    74  66  75 NE9       29.99S
CARO           MOSUNNY   76  66  71 W3        29.97F
DETROIT CITY   PTSUNNY   80  68  66 E3        29.96F
DETROIT        CLOUDY    80  70  71 CALM      29.97S
FLINT          CLOUDY    79  66  64 VRB3      29.98S
GROSSE ILE     CLOUDY    79  72  78 S5        29.96S
HILLSDALE      PTSUNNY   80  70  70 W7        30.01R
HOWELL         PTSUNNY   78  68  70 S3        29.98S

CITY           SKY/WX    TMP DP  RH WIND       PRES   REMARKS
JACKSON        PTSUNNY   80  70  71 SW5       29.98S
LAMBERTVILLE   CLOUDY    81  70  69 SW6       29.98S
LANSING        PTSUNNY   79  67  66 CALM      29.98S
LAPEER         FAIR      76  66  69 S6        29.98F
MASON          PTSUNNY   78  69  75 CALM      29.98R
MONROE         PTSUNNY   81  70  69 W8        29.95S
MT. CLEMENS    PTSUNNY   76  64  65 CALM      29.96F
PONTIAC        CLOUDY    78  66  66 SE6       29.97F
PORT HOPE        N/A     67  63  87 NE7       29.99F
PORT HURON     MOSUNNY   77  66  69 CALM      29.97F
TRI CITIES     CLOUDY    77  64  64 CALM      29.99S
TROY           CLOUDY    79  67  65 SE3       29.99S
SAGINAW HB     CLOUDY    77  63  61 CALM      29.98S
$$
MIZ043>046-050>051-056>058-064>065-071>073-077>080-212100-
SOUTHWEST LOWER MICHIGAN

CITY           SKY/WX    TMP DP  RH WIND       PRES   REMARKS
BATTLE CREEK   CLOUDY    81  70  69 SW13      29.99R
BENTON HARBOR  CLOUDY    73  70  90 CALM      29.97F
BIG RAPIDS     CLOUDY    75  68  77 S7        29.98S
COLDWATER      CLOUDY    79  70  73 W6        30.00S
FREMONT        HVY RAIN  72  69  90 SW5       29.99R
HOLLAND        LGT RAIN  74  71  91 W9        30.00F
GRAND RAPIDS   CLOUDY    79  73  82 NE8       29.98F
IONIA          CLOUDY    75  67  75 CALM      29.99R
KALAMAZOO      CLOUDY    79  69  71 SW10      29.99R
LUDINGTON      RAIN      71  67  88 W3        29.98S
MARSHALL       CLOUDY    80  69  70 SW8       29.98R
MOUNT PLEASANT CLOUDY    75  64  68 CALM      29.98S
MUSKEGON       LGT RAIN  72  68  87 SW8       29.99F FOG
SOUTH HAVEN    LGT RAIN  74  71  92 W6        29.99F
$$
MIZ016>042-212100-
NORTHERN LOWER MICHIGAN

CITY           SKY/WX    TMP DP  RH WIND       PRES   REMARKS
ALPENA         CLOUDY    71  62  73 VRB5      29.99R
BEAVER ISLAND  CLOUDY    69  62  78 CALM      29.99F
BELLAIRE       PTSUNNY   74  61  63 CALM      29.97S
CADILLAC       CLOUDY    75  64  67 W3        29.99S
CHARLEVOIX     CLOUDY    70  63  80 N5        30.01F
FRANKFORT      CLOUDY    76  64  65 CALM      29.96S
GAYLORD        CLOUDY    72  60  66 VRB3      30.00R
GRAYLING       PTSUNNY   74  60  60 CALM      30.00S
HARBOR SPRINGS CLOUDY    72  63  73 W3        29.99R
HOUGHTON LAKE  CLOUDY    75  59  57 W5        29.99S
MANISTEE       CLOUDY    73  63  68 S5        29.98S
OSCODA         CLOUDY    69  63  80 E7        29.99S
PELLSTON       CLOUDY    73  63  70 NW7       29.99S
ROGERS CITY    SUNNY     67  64  92 N6        30.00S
TRAVERSE CITY  CLOUDY    75  58  55 NE7       29.97S
$$
MIZ007>008-015-212100-
EASTERN UPPER MICHIGAN

CITY           SKY/WX    TMP DP  RH WIND       PRES   REMARKS
KINROSS        CLOUDY    72  64  78 CALM      29.98S
MACKINAC ISLAN CLOUDY    68  63  84 CALM      29.98F
NEWBERRY       CLOUDY    72  62  71 S7        29.97S
S. S. MARIE    MOSUNNY   75  61  61 CALM      29.97S
$$
MIZ004>006-011>014-085-212100-
CENTRAL UPPER MICHIGAN

CITY           SKY/WX    TMP DP  RH WIND       PRES   REMARKS
MANISTIQUE     CLOUDY    66  62  87 SE5       29.98F
ESCANABA       CLOUDY    66  61  82 SE6       29.98S
MENOMINEE      CLOUDY    70  61  73 SE9       29.94F
SAWYER-GWINN   CLOUDY    72  61  68 S6        29.97F
$$
MIZ001>003-009>011-084-212100-
WESTERN UPPER MICHIGAN

CITY           SKY/WX    TMP DP  RH WIND       PRES   REMARKS
IRON MOUNTAIN  CLOUDY    69  63  81 SE12      29.95S
HOUGHTON       PTSUNNY   66  60  81 E9        29.95F
COPPER HARBOR    N/A     63  59  87 VRB6      29.96S
IRONWOOD       CLOUDY    73  66  78 SE7       29.88S
$$

ABBREVIATIONS USED IN REMARKS
   TC - TEMPERATURE IN CELSIUS
  WCI - WIND CHILL INDEX
   HX - HEAT INDEX
  VSB - VISIBILITY



USA.gov is the U.S. government's official web portal to all federal, state and local government web resources and services.